User: anonymous   Login
Location: Bowman Observatory
(41.0326°N, 73.6210°W)
Time: 12:46:47
(UTC-04:00)
Language:

Cosmos 2298 Rocket - Orbit

View from above orbital plane
View from above orbital plane
View from above satellite
View from above satellite

Ground track
Ground track

The orbit data is extracted from the following two-line orbital elements,

1 23432U 94083B   18141.17543284  .00000005  00000-0  11430-4 0  9995
2 23432  74.0345  39.9045 0005301 177.3760 290.8984 14.33498163224739
Epoch (UTC): 21 May 2018 04:12:37
Eccentricity: 0.0005301
inclination: 74.0345°
perigee height: 776 km
apogee height: 784 km
right ascension of ascending node: 39.9045°
argument of perigee: 177.3760°
revolutions per day: 14.33498163
mean anomaly at epoch: 290.8984°
orbit number at epoch: 22473

The dashed part of the orbit path shows where the satellite is in the earth's shadow,  

DLR